Station Historical Data
Daily Summary for February 6, 2018 Units:  English    Metric   Both
« Previous Day
Next Day »
Daily Weekly Monthly Yearly Custom
  High: Low: Average:
Temperature: TemperatureF °F 13.9 °F 18.9 °F
Dew Point: DewpointF °F 10.2 °F 14.1 °F
Humidity: Humidity% 66% 81%
Wind Speed: WindSpeedMPHmph 0.0mph 4.9mph
Wind Gust: WindSpeedGustMPHmph - -
Wind- - SW
Pressure: PressureIn in 30.20 in -
Precipitation: 0.00 in    
Historical Graphs
 
 
Tabular Data for February 6, 2018
Time Temperature Dew Point Pressure Wind Wind Speed Wind Gust Humidity Rainfall Rate (Hourly)
TemperatureF °F DewpointF °F PressureIn in Calm     Humidity% HourlyPrecipIn in
00:04 18.2 °F 12.8 °F 30.24 in SSW 3.0 mph 11.0 mph 79% 0.00 in
00:09 18.2 °F 13.1 °F 30.24 in SW 5.0 mph 13.0 mph 80% 0.00 in
00:14 18.2 °F 13.3 °F 30.23 in SW 5.0 mph 13.0 mph 81% 0.00 in
00:19 18.2 °F 13.3 °F 30.23 in SW 5.0 mph 11.0 mph 81% 0.00 in
00:24 18.3 °F 13.7 °F 30.23 in SW 5.0 mph 11.0 mph 82% 0.00 in
00:29 18.3 °F 14.0 °F 30.23 in SW 6.0 mph 11.0 mph 83% 0.00 in
00:34 18.4 °F 14.1 °F 30.23 in WSW 9.0 mph 10.0 mph 83% 0.00 in
00:39 18.5 °F 14.2 °F 30.23 in SW 5.0 mph 9.0 mph 83% 0.00 in
00:44 18.5 °F 14.5 °F 30.23 in SW 6.0 mph 11.0 mph 84% 0.00 in
00:49 18.5 °F 14.5 °F 30.23 in SW 7.0 mph 12.0 mph 84% 0.00 in
00:54 18.5 °F 14.5 °F 30.22 in WSW 5.0 mph 11.0 mph 84% 0.00 in
00:59 18.6 °F 14.8 °F 30.22 in South 3.0 mph 10.0 mph 85% 0.00 in
01:04 18.6 °F 14.8 °F 30.22 in WSW 3.0 mph 12.0 mph 85% 0.00 in
01:09 18.7 °F 14.9 °F 30.22 in SW 2.0 mph 8.0 mph 85% 0.00 in
01:14 18.7 °F 14.9 °F 30.22 in SW 4.0 mph 10.0 mph 85% 0.00 in
01:19 18.7 °F 15.2 °F 30.21 in SW 5.0 mph 13.0 mph 86% 0.00 in
01:24 18.7 °F 15.2 °F 30.21 in SW 6.0 mph 13.0 mph 86% 0.00 in
01:29 18.7 °F 15.2 °F 30.21 in WSW 5.0 mph 14.0 mph 86% 0.00 in
01:34 18.7 °F 15.2 °F 30.21 in SW 7.0 mph 12.0 mph 86% 0.00 in
01:39 18.6 °F 15.1 °F 30.21 in SW 4.0 mph 9.0 mph 86% 0.00 in
01:44 18.6 °F 15.1 °F 30.20 in WSW 6.0 mph 12.0 mph 86% 0.00 in
01:49 18.7 °F 15.2 °F 30.21 in SW 4.0 mph 12.0 mph 86% 0.00 in
01:54 18.8 °F 15.3 °F 30.21 in SW 4.0 mph 9.0 mph 86% 0.00 in
01:59 18.8 °F 15.3 °F 30.21 in SW 5.0 mph 9.0 mph 86% 0.00 in
02:04 18.8 °F 15.3 °F 30.21 in SW 4.0 mph 7.0 mph 86% 0.00 in
02:09 18.7 °F 15.2 °F 30.21 in SSW 5.0 mph 13.0 mph 86% 0.00 in
02:14 18.6 °F 15.1 °F 30.21 in SW 1.0 mph 7.0 mph 86% 0.00 in
02:19 18.6 °F 15.1 °F 30.21 in SW 5.0 mph 7.0 mph 86% 0.00 in
02:24 18.5 °F 15.0 °F 30.21 in SSW 4.0 mph 10.0 mph 86% 0.00 in
02:29 18.5 °F 15.0 °F 30.21 in SSW 4.0 mph 11.0 mph 86% 0.00 in
02:34 18.4 °F 14.9 °F 30.21 in SW 3.0 mph 8.0 mph 86% 0.00 in
02:39 18.4 °F 14.9 °F 30.21 in SW 5.0 mph 9.0 mph 86% 0.00 in
02:44 18.4 °F 14.9 °F 30.21 in SW 4.0 mph 9.0 mph 86% 0.00 in
02:49 18.4 °F 14.9 °F 30.21 in SSW 2.0 mph 9.0 mph 86% 0.00 in
02:54 18.4 °F 14.9 °F 30.22 in SSW 4.0 mph 9.0 mph 86% 0.00 in
02:59 18.4 °F 14.9 °F 30.21 in SW 4.0 mph 7.0 mph 86% 0.00 in
03:04 18.4 °F 14.9 °F 30.20 in SW 3.0 mph 7.0 mph 86% 0.00 in
03:09 18.4 °F 14.9 °F 30.21 in SW 4.0 mph 9.0 mph 86% 0.00 in
03:14 18.4 °F 14.9 °F 30.21 in South 5.0 mph 8.0 mph 86% 0.00 in
03:19 18.3 °F 14.8 °F 30.21 in SSW 3.0 mph 8.0 mph 86% 0.00 in
03:24 18.4 °F 15.2 °F 30.21 in SW 3.0 mph 7.0 mph 87% 0.00 in
03:29 18.3 °F 14.8 °F 30.20 in SW 4.0 mph 8.0 mph 86% 0.00 in
03:39 18.4 °F 14.9 °F 30.21 in SW 5.0 mph 9.0 mph 86% 0.00 in
03:44 18.4 °F 15.2 °F 30.21 in WSW 4.0 mph 10.0 mph 87% 0.00 in
03:49 18.4 °F 15.2 °F 30.21 in WSW 3.0 mph 9.0 mph 87% 0.00 in
03:54 18.5 °F 15.3 °F 30.21 in SW 4.0 mph 9.0 mph 87% 0.00 in
04:00 18.5 °F 15.3 °F 30.21 in SW 4.0 mph 8.0 mph 87% 0.00 in
04:10 18.5 °F 15.3 °F 30.22 in SW 6.0 mph 7.0 mph 87% 0.00 in
04:15 18.5 °F 15.3 °F 30.22 in SW 4.0 mph 10.0 mph 87% 0.00 in
04:24 18.5 °F 15.3 °F 30.22 in SW 3.0 mph 8.0 mph 87% 0.00 in
04:29 18.5 °F 15.3 °F 30.22 in SW 4.0 mph 8.0 mph 87% 0.00 in
04:34 18.5 °F 15.3 °F 30.22 in SSW 5.0 mph 10.0 mph 87% 0.00 in
04:39 18.6 °F 15.4 °F 30.23 in SW 5.0 mph 10.0 mph 87% 0.00 in
04:44 18.6 °F 15.4 °F 30.23 in SW 4.0 mph 10.0 mph 87% 0.00 in
04:49 18.6 °F 15.4 °F 30.23 in SSW 6.0 mph 8.0 mph 87% 0.00 in
04:54 18.6 °F 15.4 °F 30.23 in SSW 3.0 mph 7.0 mph 87% 0.00 in
04:59 18.6 °F 15.4 °F 30.23 in SW 3.0 mph 8.0 mph 87% 0.00 in
05:04 18.6 °F 15.4 °F 30.23 in SW 4.0 mph 8.0 mph 87% 0.00 in
05:09 18.5 °F 15.3 °F 30.23 in SW 4.0 mph 7.0 mph 87% 0.00 in
05:14 18.6 °F 15.4 °F 30.24 in SW 3.0 mph 7.0 mph 87% 0.00 in
05:19 18.6 °F 15.4 °F 30.24 in WNW 5.0 mph 7.0 mph 87% 0.00 in
05:24 18.6 °F 15.4 °F 30.24 in SW 4.0 mph 8.0 mph 87% 0.00 in
05:29 18.7 °F 15.5 °F 30.24 in WSW 6.0 mph 9.0 mph 87% 0.00 in
05:34 18.7 °F 15.5 °F 30.24 in West 2.0 mph 11.0 mph 87% 0.00 in
05:39 18.7 °F 15.5 °F 30.24 in SW 5.0 mph 11.0 mph 87% 0.00 in
05:44 18.7 °F 15.5 °F 30.25 in SW 4.0 mph 11.0 mph 87% 0.00 in
05:49 18.8 °F 15.6 °F 30.25 in SW 5.0 mph 12.0 mph 87% 0.00 in
05:54 18.8 °F 15.6 °F 30.25 in SW 4.0 mph 12.0 mph 87% 0.00 in
05:59 18.8 °F 15.6 °F 30.25 in SW 4.0 mph 9.0 mph 87% 0.00 in
06:04 18.9 °F 15.7 °F 30.25 in WSW 4.0 mph 9.0 mph 87% 0.00 in
06:09 18.9 °F 15.7 °F 30.25 in WSW 4.0 mph 9.0 mph 87% 0.00 in
06:14 19.0 °F 15.8 °F 30.25 in SSW 3.0 mph 9.0 mph 87% 0.00 in
06:19 19.0 °F 15.8 °F 30.25 in SW 3.0 mph 9.0 mph 87% 0.00 in
06:24 19.0 °F 15.8 °F 30.25 in WSW 7.0 mph 9.0 mph 87% 0.00 in
06:29 19.1 °F 15.9 °F 30.26 in SSW 4.0 mph 8.0 mph 87% 0.00 in
06:34 19.2 °F 16.0 °F 30.26 in SW 9.0 mph 10.0 mph 87% 0.00 in
06:39 19.2 °F 16.0 °F 30.26 in SW 6.0 mph 14.0 mph 87% 0.00 in
06:44 19.3 °F 16.1 °F 30.26 in SW 7.0 mph 14.0 mph 87% 0.00 in
06:49 19.3 °F 16.1 °F 30.26 in SW 6.0 mph 10.0 mph 87% 0.00 in
06:54 19.3 °F 16.1 °F 30.26 in SW 6.0 mph 11.0 mph 87% 0.00 in
06:59 19.3 °F 16.1 °F 30.27 in SW 6.0 mph 13.0 mph 87% 0.00 in
07:04 19.3 °F 16.1 °F 30.27 in WSW 6.0 mph 13.0 mph 87% 0.00 in
07:09 19.3 °F 16.1 °F 30.27 in WSW 5.0 mph 11.0 mph 87% 0.00 in
07:14 19.4 °F 16.2 °F 30.28 in WSW 5.0 mph 10.0 mph 87% 0.00 in
07:19 19.2 °F 16.0 °F 30.28 in WSW 6.0 mph 9.0 mph 87% 0.00 in
07:24 19.0 °F 15.8 °F 30.29 in West 3.0 mph 8.0 mph 87% 0.00 in
07:29 18.9 °F 15.4 °F 30.29 in West 3.0 mph 8.0 mph 86% 0.00 in
07:34 18.8 °F 15.3 °F 30.29 in WSW 5.0 mph 8.0 mph 86% 0.00 in
07:39 18.7 °F 15.2 °F 30.29 in West 2.0 mph 9.0 mph 86% 0.00 in
07:44 18.7 °F 15.2 °F 30.29 in West 5.0 mph 12.0 mph 86% 0.00 in
07:49 18.6 °F 15.1 °F 30.30 in WSW 5.0 mph 12.0 mph 86% 0.00 in
07:54 18.6 °F 15.1 °F 30.30 in WSW 5.0 mph 11.0 mph 86% 0.00 in
07:59 18.7 °F 15.2 °F 30.30 in WSW 5.0 mph 7.0 mph 86% 0.00 in
08:04 18.7 °F 14.9 °F 30.30 in West 7.0 mph 11.0 mph 85% 0.00 in
08:09 18.7 °F 14.9 °F 30.31 in West 4.0 mph 7.0 mph 85% 0.00 in
08:14 18.8 °F 15.0 °F 30.31 in WSW 5.0 mph 10.0 mph 85% 0.00 in
08:19 18.8 °F 15.0 °F 30.31 in WSW 6.0 mph 13.0 mph 85% 0.00 in
08:24 18.8 °F 14.8 °F 30.31 in WSW 6.0 mph 13.0 mph 84% 0.00 in
08:29 18.8 °F 14.8 °F 30.31 in West 5.0 mph 13.0 mph 84% 0.00 in
08:34 18.8 °F 14.8 °F 30.31 in NW 2.0 mph 10.0 mph 84% 0.00 in
08:39 18.8 °F 14.5 °F 30.31 in SW 4.0 mph 13.0 mph 83% 0.00 in
08:44 18.9 °F 14.6 °F 30.31 in WSW 8.0 mph 13.0 mph 83% 0.00 in
08:49 19.0 °F 14.7 °F 30.31 in WSW 6.0 mph 13.0 mph 83% 0.00 in
08:54 19.0 °F 14.4 °F 30.32 in WSW 6.0 mph 12.0 mph 82% 0.00 in
08:59 19.0 °F 14.1 °F 30.32 in WSW 7.0 mph 15.0 mph 81% 0.00 in
09:04 19.0 °F 14.1 °F 30.32 in WSW 7.0 mph 14.0 mph 81% 0.00 in
09:09 19.1 °F 13.9 °F 30.33 in SW 6.0 mph 10.0 mph 80% 0.00 in
09:14 19.3 °F 13.9 °F 30.33 in WSW 7.0 mph 8.0 mph 79% 0.00 in
09:19 19.5 °F 13.8 °F 30.33 in WSW 5.0 mph 12.0 mph 78% 0.00 in
09:24 19.4 °F 13.4 °F 30.33 in WSW 6.0 mph 14.0 mph 77% 0.00 in
09:29 19.3 °F 13.0 °F 30.34 in WSW 7.0 mph 14.0 mph 76% 0.00 in
09:34 19.5 °F 12.9 °F 30.33 in WSW 6.0 mph 13.0 mph 75% 0.00 in
09:39 19.6 °F 13.0 °F 30.34 in WSW 3.0 mph 11.0 mph 75% 0.00 in
09:44 19.6 °F 13.0 °F 30.34 in SW 5.0 mph 10.0 mph 75% 0.00 in
09:49 19.6 °F 13.0 °F 30.34 in SW 7.0 mph 9.0 mph 75% 0.00 in
09:54 19.5 °F 12.9 °F 30.34 in SW 5.0 mph 10.0 mph 75% 0.00 in
09:59 19.4 °F 12.5 °F 30.35 in SW 6.0 mph 11.0 mph 74% 0.00 in
10:04 19.3 °F 12.4 °F 30.35 in WSW 7.0 mph 13.0 mph 74% 0.00 in
10:09 19.3 °F 12.7 °F 30.35 in SW 11.0 mph 14.0 mph 75% 0.00 in
10:14 19.7 °F 13.1 °F 30.35 in SW 6.0 mph 11.0 mph 75% 0.00 in
10:19 19.8 °F 12.8 °F 30.36 in WSW 5.0 mph 13.0 mph 74% 0.00 in
10:24 20.0 °F 13.0 °F 30.36 in WSW 7.0 mph 13.0 mph 74% 0.00 in
10:29 20.0 °F 12.7 °F 30.36 in WSW 7.0 mph 16.0 mph 73% 0.00 in
10:34 19.9 °F 12.6 °F 30.37 in WSW 7.0 mph 16.0 mph 73% 0.00 in
10:39 19.7 °F 12.4 °F 30.37 in WSW 8.0 mph 15.0 mph 73% 0.00 in
10:44 20.0 °F 12.7 °F 30.37 in WSW 8.0 mph 15.0 mph 73% 0.00 in
10:49 20.1 °F 12.8 °F 30.38 in WSW 8.0 mph 15.0 mph 73% 0.00 in
10:54 20.5 °F 13.2 °F 30.38 in SW 9.0 mph 16.0 mph 73% 0.00 in
10:59 21.1 °F 13.8 °F 30.38 in SW 6.0 mph 13.0 mph 73% 0.00 in
11:04 21.3 °F 13.7 °F 30.38 in West 3.0 mph 13.0 mph 72% 0.00 in
11:09 21.2 °F 13.3 °F 30.39 in WSW 5.0 mph 15.0 mph 71% 0.00 in
11:14 21.5 °F 13.5 °F 30.39 in West 11.0 mph 14.0 mph 71% 0.00 in
11:19 21.6 °F 13.6 °F 30.40 in West 8.0 mph 17.0 mph 71% 0.01 in
11:24 21.7 °F 13.4 °F 30.40 in SW 6.0 mph 13.0 mph 70% 0.01 in
11:29 21.7 °F 13.1 °F 30.40 in WSW 7.0 mph 14.0 mph 69% 0.01 in
11:34 21.3 °F 11.7 °F 30.40 in WSW 8.0 mph 16.0 mph 66% 0.01 in
11:39 21.8 °F 12.5 °F 30.40 in WSW 8.0 mph 16.0 mph 67% 0.01 in
11:44 22.4 °F 12.8 °F 30.41 in WSW 8.0 mph 16.0 mph 66% 0.02 in
11:49 22.0 °F 12.4 °F 30.41 in WSW 9.0 mph 18.0 mph 66% 0.02 in
11:54 22.4 °F 13.4 °F 30.40 in WSW 9.0 mph 18.0 mph 68% 0.02 in
11:59 21.9 °F 13.3 °F 30.41 in WSW 9.0 mph 19.0 mph 69% 0.02 in
12:04 22.3 °F 14.0 °F 30.41 in SW 4.0 mph 13.0 mph 70% 0.02 in
12:09 22.7 °F 14.4 °F 30.41 in WNW 4.0 mph 16.0 mph 70% 0.02 in
12:14 23.0 °F 15.0 °F 30.41 in WSW 10.0 mph 12.0 mph 71% 0.03 in
12:19 23.1 °F 14.8 °F 30.40 in West 10.0 mph 16.0 mph 70% 0.02 in
12:24 23.5 °F 15.1 °F 30.40 in SSW 10.0 mph 15.0 mph 70% 0.02 in
12:29 23.1 °F 14.8 °F 30.40 in SSW 9.0 mph 18.0 mph 70% 0.02 in
12:34 22.9 °F 14.6 °F 30.40 in WSW 5.0 mph 14.0 mph 70% 0.02 in
12:39 23.2 °F 15.2 °F 30.40 in WSW 8.0 mph 15.0 mph 71% 0.02 in
12:44 22.6 °F 14.3 °F 30.40 in SW 8.0 mph 17.0 mph 70% 0.01 in
12:49 22.3 °F 14.0 °F 30.41 in SW 8.0 mph 17.0 mph 70% 0.01 in
12:54 22.0 °F 13.7 °F 30.41 in SW 9.0 mph 19.0 mph 70% 0.02 in
12:59 21.8 °F 13.8 °F 30.41 in SW 11.0 mph 16.0 mph 71% 0.02 in
13:04 21.7 °F 14.1 °F 30.41 in SW 9.0 mph 16.0 mph 72% 0.02 in
13:09 21.4 °F 13.8 °F 30.41 in WSW 9.0 mph 17.0 mph 72% 0.02 in
13:14 21.3 °F 14.0 °F 30.41 in SW 10.0 mph 17.0 mph 73% 0.01 in
13:19 21.6 °F 14.6 °F 30.41 in West 4.0 mph 14.0 mph 74% 0.01 in
13:24 21.8 °F 14.8 °F 30.40 in West 6.0 mph 10.0 mph 74% 0.01 in
13:29 21.7 °F 14.7 °F 30.40 in SW 10.0 mph 13.0 mph 74% 0.01 in
13:34 21.9 °F 14.9 °F 30.40 in West 9.0 mph 17.0 mph 74% 0.01 in
13:39 21.9 °F 14.9 °F 30.40 in SW 8.0 mph 17.0 mph 74% 0.01 in
13:44 21.9 °F 15.2 °F 30.40 in SW 7.0 mph 13.0 mph 75% 0.01 in
13:49 21.8 °F 15.1 °F 30.40 in SW 8.0 mph 15.0 mph 75% 0.01 in
13:54 21.7 °F 15.0 °F 30.40 in SW 9.0 mph 15.0 mph 75% 0.00 in
13:59 21.7 °F 15.3 °F 30.40 in SW 8.0 mph 19.0 mph 76% 0.00 in
14:04 21.5 °F 15.1 °F 30.40 in WSW 8.0 mph 19.0 mph 76% 0.00 in
14:09 21.8 °F 15.4 °F 30.40 in WSW 9.0 mph 18.0 mph 76% 0.00 in
14:14 21.6 °F 15.2 °F 30.40 in SW 5.0 mph 19.0 mph 76% 0.00 in
14:19 21.6 °F 15.2 °F 30.41 in SW 11.0 mph 14.0 mph 76% 0.00 in
14:24 21.5 °F 15.1 °F 30.41 in SW 6.0 mph 16.0 mph 76% 0.00 in
14:29 21.7 °F 15.6 °F 30.41 in WSW 10.0 mph 16.0 mph 77% 0.00 in
14:34 21.8 °F 15.4 °F 30.41 in WSW 4.0 mph 14.0 mph 76% 0.00 in
14:39 21.8 °F 15.1 °F 30.41 in WSW 10.0 mph 16.0 mph 75% 0.00 in
14:44 21.7 °F 15.3 °F 30.41 in WSW 8.0 mph 16.0 mph 76% 0.00 in
14:49 21.9 °F 15.5 °F 30.42 in SW 9.0 mph 16.0 mph 76% 0.00 in
14:54 21.9 °F 15.5 °F 30.42 in WSW 9.0 mph 17.0 mph 76% 0.00 in
14:59 22.0 °F 15.6 °F 30.42 in WSW 9.0 mph 17.0 mph 76% 0.00 in
15:04 22.1 °F 15.7 °F 30.43 in SW 9.0 mph 17.0 mph 76% 0.00 in
15:09 22.3 °F 15.9 °F 30.43 in SW 8.0 mph 15.0 mph 76% 0.00 in
15:19 21.8 °F 15.7 °F 30.43 in SW 7.0 mph 15.0 mph 77% 0.00 in
15:24 21.6 °F 15.5 °F 30.44 in SW 8.0 mph 15.0 mph 77% 0.00 in
15:29 21.5 °F 15.7 °F 30.44 in WSW 9.0 mph 15.0 mph 78% 0.00 in
15:34 21.5 °F 15.7 °F 30.44 in WSW 7.0 mph 14.0 mph 78% 0.00 in
15:39 21.6 °F 15.8 °F 30.44 in WSW 10.0 mph 13.0 mph 78% 0.00 in
15:44 21.8 °F 15.7 °F 30.44 in SW 8.0 mph 16.0 mph 77% 0.00 in
15:49 21.6 °F 15.5 °F 30.44 in SW 10.0 mph 11.0 mph 77% 0.00 in
15:54 21.8 °F 16.0 °F 30.44 in SW 6.0 mph 12.0 mph 78% 0.00 in
15:59 21.8 °F 15.7 °F 30.44 in WSW 6.0 mph 13.0 mph 77% 0.00 in
16:04 22.1 °F 15.7 °F 30.44 in WSW 6.0 mph 13.0 mph 76% 0.00 in
16:09 21.9 °F 15.5 °F 30.44 in WSW 7.0 mph 13.0 mph 76% 0.00 in
16:14 22.0 °F 15.9 °F 30.44 in SW 7.0 mph 14.0 mph 77% 0.00 in
16:19 21.7 °F 15.3 °F 30.45 in SW 5.0 mph 12.0 mph 76% 0.00 in
16:24 21.4 °F 15.0 °F 30.45 in SW 8.0 mph 12.0 mph 76% 0.00 in
16:29 21.4 °F 15.3 °F 30.45 in SW 6.0 mph 11.0 mph 77% 0.00 in
16:34 21.2 °F 14.8 °F 30.45 in SW 6.0 mph 13.0 mph 76% 0.00 in
16:39 21.0 °F 14.6 °F 30.45 in SW 8.0 mph 14.0 mph 76% 0.00 in
16:44 20.7 °F 14.6 °F 30.45 in SW 7.0 mph 12.0 mph 77% 0.00 in
16:49 20.8 °F 14.7 °F 30.45 in WSW 8.0 mph 15.0 mph 77% 0.00 in
16:54 20.6 °F 14.5 °F 30.45 in SW 4.0 mph 15.0 mph 77% 0.00 in
16:59 20.4 °F 14.6 °F 30.46 in SW 7.0 mph 15.0 mph 78% 0.00 in
17:04 20.3 °F 14.5 °F 30.46 in SW 7.0 mph 14.0 mph 78% 0.00 in
17:09 20.0 °F 14.2 °F 30.46 in SW 7.0 mph 14.0 mph 78% 0.00 in
17:14 19.8 °F 14.3 °F 30.46 in SW 7.0 mph 14.0 mph 79% 0.00 in
17:19 19.6 °F 14.1 °F 30.46 in SW 7.0 mph 12.0 mph 79% 0.00 in
17:24 19.4 °F 13.9 °F 30.47 in WSW 7.0 mph 11.0 mph 79% 0.00 in
17:29 19.3 °F 13.9 °F 30.47 in SW 5.0 mph 11.0 mph 79% 0.00 in
17:34 19.2 °F 14.0 °F 30.47 in SW 6.0 mph 12.0 mph 80% 0.00 in
17:39 19.1 °F 13.9 °F 30.47 in WSW 4.0 mph 10.0 mph 80% 0.00 in
17:49 18.9 °F 13.7 °F 30.48 in SW 7.0 mph 13.0 mph 80% 0.00 in
17:54 18.8 °F 13.9 °F 30.48 in SW 5.0 mph 9.0 mph 81% 0.00 in
17:59 18.7 °F 13.8 °F 30.49 in WNW 6.0 mph 12.0 mph 81% 0.00 in
18:04 18.6 °F 13.7 °F 30.49 in SW 5.0 mph 12.0 mph 81% 0.00 in
18:09 18.5 °F 13.6 °F 30.49 in WSW 4.0 mph 9.0 mph 81% 0.00 in
18:14 18.4 °F 13.5 °F 30.49 in WSW 4.0 mph 9.0 mph 81% 0.00 in
18:19 18.4 °F 13.8 °F 30.50 in WSW 5.0 mph 9.0 mph 82% 0.00 in
18:24 18.5 °F 13.9 °F 30.50 in SW 5.0 mph 10.0 mph 82% 0.00 in
18:29 18.7 °F 14.1 °F 30.51 in SW 6.0 mph 10.0 mph 82% 0.00 in
18:34 18.9 °F 14.3 °F 30.50 in SW 5.0 mph 10.0 mph 82% 0.00 in
18:39 19.0 °F 14.4 °F 30.50 in SW 5.0 mph 10.0 mph 82% 0.00 in
18:44 19.0 °F 14.4 °F 30.50 in SW 5.0 mph 9.0 mph 82% 0.00 in
18:49 18.9 °F 14.3 °F 30.50 in SW 5.0 mph 10.0 mph 82% 0.00 in
18:54 18.8 °F 14.2 °F 30.51 in WSW 3.0 mph 9.0 mph 82% 0.00 in
18:59 18.7 °F 14.1 °F 30.51 in SW 4.0 mph 8.0 mph 82% 0.00 in
19:04 18.7 °F 14.1 °F 30.51 in SW 3.0 mph 7.0 mph 82% 0.00 in
19:09 18.8 °F 14.2 °F 30.52 in SW 4.0 mph 8.0 mph 82% 0.00 in
19:14 18.9 °F 14.3 °F 30.52 in SW 4.0 mph 8.0 mph 82% 0.00 in
19:19 18.8 °F 14.2 °F 30.52 in SW 4.0 mph 8.0 mph 82% 0.00 in
19:24 18.6 °F 14.0 °F 30.52 in SW 3.0 mph 6.0 mph 82% 0.00 in
19:29 18.5 °F 13.9 °F 30.52 in SW 4.0 mph 7.0 mph 82% 0.00 in
19:34 18.3 °F 13.7 °F 30.52 in WSW 1.0 mph 8.0 mph 82% 0.00 in
19:39 18.2 °F 13.6 °F 30.52 in SW 4.0 mph 8.0 mph 82% 0.00 in
19:44 18.0 °F 13.7 °F 30.51 in SW 4.0 mph 9.0 mph 83% 0.00 in
19:49 17.9 °F 13.6 °F 30.51 in SW 4.0 mph 10.0 mph 83% 0.00 in
19:54 17.7 °F 13.4 °F 30.51 in SW 4.0 mph 10.0 mph 83% 0.00 in
19:59 17.6 °F 13.3 °F 30.51 in SW 3.0 mph 6.0 mph 83% 0.00 in
20:04 17.5 °F 13.2 °F 30.51 in WSW 1.0 mph 6.0 mph 83% 0.00 in
20:09 17.5 °F 13.2 °F 30.51 in SW 3.0 mph 6.0 mph 83% 0.00 in
20:14 17.2 °F 12.9 °F 30.51 in WSW 2.0 mph 4.0 mph 83% 0.00 in
20:19 17.1 °F 12.8 °F 30.51 in WSW 1.0 mph 4.0 mph 83% 0.00 in
20:24 16.9 °F 12.9 °F 30.51 in WSW 1.0 mph 4.0 mph 84% 0.00 in
20:29 16.9 °F 12.9 °F 30.51 in WSW 3.0 mph 4.0 mph 84% 0.00 in
20:34 16.8 °F 12.8 °F 30.51 in WSW 3.0 mph 4.0 mph 84% 0.00 in
20:39 16.7 °F 12.7 °F 30.51 in WSW 1.0 mph 4.0 mph 84% 0.00 in
20:44 16.6 °F 12.6 °F 30.51 in WSW 1.0 mph 4.0 mph 84% 0.00 in
20:49 16.4 °F 12.4 °F 30.51 in WSW 1.0 mph 3.0 mph 84% 0.00 in
20:54 16.4 °F 12.7 °F 30.51 in WSW 2.0 mph 3.0 mph 85% 0.00 in
20:59 16.2 °F 12.5 °F 30.51 in WSW 2.0 mph 5.0 mph 85% 0.00 in
21:04 16.2 °F 12.5 °F 30.51 in WSW 2.0 mph 2.0 mph 85% 0.00 in
21:09 16.2 °F 12.5 °F 30.51 in WSW 3.0 mph 4.0 mph 85% 0.00 in
21:14 16.0 °F 12.3 °F 30.51 in Calm   3.0 mph 85% 0.00 in
21:19 15.7 °F 12.0 °F 30.51 in Calm   3.0 mph 85% 0.00 in
21:24 15.5 °F 11.8 °F 30.51 in WSW 1.0 mph 3.0 mph 85% 0.00 in
21:29 15.4 °F 11.7 °F 30.51 in WSW 1.0 mph 1.0 mph 85% 0.00 in
21:34 15.2 °F 11.5 °F 30.51 in Calm   2.0 mph 85% 0.00 in
21:39 15.0 °F 11.3 °F 30.51 in Calm     85% 0.00 in
21:44 14.8 °F 11.1 °F 30.51 in Calm     85% 0.00 in
21:49 14.5 °F 10.8 °F 30.51 in Calm     85% 0.00 in
21:54 14.4 °F 11.0 °F 30.51 in Calm     86% 0.00 in
21:59 14.3 °F 10.9 °F 30.51 in Calm     86% 0.00 in
22:04 14.2 °F 10.8 °F 30.51 in Calm     86% 0.00 in
22:09 14.3 °F 10.9 °F 30.51 in Calm     86% 0.00 in
22:14 14.4 °F 11.0 °F 30.51 in WSW 2.0 mph 2.0 mph 86% 0.00 in
22:19 14.8 °F 11.6 °F 30.51 in WSW 1.0 mph 3.0 mph 87% 0.00 in
22:24 14.9 °F 11.5 °F 30.51 in WSW 1.0 mph 3.0 mph 86% 0.00 in
22:29 15.0 °F 11.6 °F 30.51 in WSW 1.0 mph 2.0 mph 86% 0.00 in
22:34 14.8 °F 11.4 °F 30.51 in Calm   2.0 mph 86% 0.00 in
22:39 14.8 °F 11.4 °F 30.51 in Calm     86% 0.00 in
22:44 14.8 °F 11.6 °F 30.51 in WSW 1.0 mph 1.0 mph 87% 0.00 in
22:49 15.0 °F 11.8 °F 30.51 in WSW 1.0 mph 3.0 mph 87% 0.00 in
22:54 15.1 °F 11.7 °F 30.51 in WSW 1.0 mph 3.0 mph 86% 0.00 in
22:59 15.2 °F 11.8 °F 30.51 in WSW 1.0 mph 3.0 mph 86% 0.00 in
23:04 15.1 °F 11.7 °F 30.51 in WSW 1.0 mph 3.0 mph 86% 0.00 in
23:09 15.0 °F 11.6 °F 30.51 in Calm   1.0 mph 86% 0.00 in
23:14 14.8 °F 11.4 °F 30.51 in WSW 1.0 mph 2.0 mph 86% 0.00 in
23:19 14.6 °F 11.2 °F 30.50 in Calm   1.0 mph 86% 0.00 in
23:24 14.5 °F 11.1 °F 30.50 in Calm   1.0 mph 86% 0.00 in
23:29 14.3 °F 10.6 °F 30.50 in Calm   2.0 mph 85% 0.00 in
23:34 14.2 °F 10.8 °F 30.50 in Calm   3.0 mph 86% 0.00 in
23:39 14.1 °F 10.4 °F 30.50 in Calm     85% 0.00 in
23:44 14.0 °F 10.3 °F 30.50 in Calm     85% 0.00 in
23:49 13.9 °F 10.2 °F 30.50 in Calm     85% 0.00 in
23:54 13.9 °F 10.2 °F 30.50 in Calm     85% 0.00 in
23:59 13.9 °F 10.2 °F 30.49 in Calm     85% 0.00 in
Buffalo, New York, USA
Compliments of Weather Underground - 2.5 mb